Regional Weather Roundup
Issued by NWS

Home | Current Version | Previous Version | Text Only | Print | Product List | Glossary On
Versions: 1 2 3 4 5 6 7 8 9 10 11 12 13 14 15 16 17 18 19 20 21 22 23 24 25 26 27 28 29 30 31 32 33 34 35 36 37 38 39 40 41 42 43 44 45 46 47 48 49 50
000
ASUS43 KLSX 191857
RWRMO

WEATHER SUMMARY FOR MISSOURI
NATIONAL WEATHER SERVICE SPRINGFIELD MO
200 PM CDT SAT AUG 19 2017

NOTE: "FAIR" INDICATES FEW OR NO CLOUDS BELOW 12,000 FEET WITH NO
       SIGNIFICANT WEATHER AND/OR OBSTRUCTIONS TO VISIBILITY.
       CURRENT SKY AND/OR WEATHER CONDITIONS ARE NOT AVAILABLE FOR
       CHILLICOTHE AND FARMINGTON.

MOZ001>031-035>038-043-044-053-054-192000-
...NORTHERN AND WESTERN MISSOURI...

CITY           SKY/WX    TMP DP  RH WIND       PRES   REMARKS
KANSAS CTY INT SUNNY     88  66  48 CALM      29.97F HX  90
LEE`S SUMMIT   SUNNY     89  68  49 NE3       29.98S HX  93
ST JOSEPH      SUNNY     89  68  49 NW3       29.95F HX  93
CHILLICOTHE      N/A     90  60  36 VRB3      29.96S

$$
MOZ066>068-077>081-088>096-101>105-192000-
...SOUTHWEST MISSOURI...

CITY           SKY/WX    TMP DP  RH WIND       PRES   REMARKS
SPRINGFIELD    MOSUNNY   89  75  63 W6        29.99F HX  99
JOPLIN         MOSUNNY   92  77  61 SW10      29.97F HX 105
BRANSON        MOSUNNY   90  73  58 NW8       30.02F HX  98

$$
MOZ032>034-039>042-045>050-055>058-069>072-192000-
...CENTRAL MISSOURI...

CITY           SKY/WX    TMP DP  RH WIND       PRES   REMARKS
COLUMBIA       NOT AVBL
JEFFERSON CITY SUNNY     88  72  58 CALM      29.95F HX  94
ROLLA          SUNNY     88  72  58 SW8       29.99F HX  94
SEDALIA        SUNNY     89  73  59 VRB5      29.98F HX  97
WARRENSBURG    SUNNY     86  68  54 CALM      29.97S

$$
MOZ051-052-059>065-192000-
...EAST CENTRAL MISSOURI...

CITY           SKY/WX    TMP DP  RH WIND       PRES   REMARKS
ST LOUIS INTL  MOSUNNY   89  67  47 W8        29.96S HX  92

$$
MOZ072>076-082>087-097>100-106>115-192000-
...SOUTH CENTRAL AND SOUTHEAST MISSOURI...

CITY           SKY/WX    TMP DP  RH WIND       PRES   REMARKS
CAPE GIRARDEAU MOSUNNY   89  71  55 CALM      29.95S HX  95
POPLAR BLUFF   MOSUNNY   92  74  55 E3        29.95S HX 101

$$



USA.gov is the U.S. government's official web portal to all federal, state and local government web resources and services.